Погода в Ивринди

Турция     39°34′48″N   27°29′10″E
темп.,
°C
ветер,
м/с
пор.,
м/с
влажн.,
%
обл.,
%
осадки,
мм/ч
давл.,
гПа
погр.,
м
24 января, пн
пн2400:00−10зсз118282 0.0 102510
03:00−11зюз018598 0.0 102510
06:00−12сз119096 0.0 102515
09:00−12св129623 0.0 102628
12:00−5св249196 0.0 1026273
15:00−2св6881100 0.0 1025820
18:00−4ссв61293100 0.1 1026774
21:00−4с51493100 0.1 1027769
25 января, вт
вт2500:00−6ссз259571 0.6 1027200
03:00−6ссв4119869 1.0 1027440
06:00−3ссв61497100 1.6 10261105
09:00−5с71593100 2.2 1027918
12:00−3ссв71292100 0.3 10261117
15:00−2ссв91392100 0.7 10241142
18:00−4с7139399 0.4 1024878
21:00−7с4109691 0.5 1025407
26 января, ср
ср2600:00−9ссз379781 0.1 1025189
03:00−7ссз3109587 0.1 1024240
06:00−10сз359743 0.1 102587
09:00−11сз239622 0.1 102626
12:00−3с488012 0.0 1025654
15:00−2с46755 0.0 1024621
18:00−7ссв22885 0.0 102415
21:00−11сз118719 0.0 102711
27 января, чт
чт2700:00−11сз11865 0.0 102811
03:00−11з11845 0.0 102810
06:00−12ссз01825 0.0 102810
09:00−12ссв118722 0.0 103013
12:00−4ссв22857 0.0 1029172
15:00−1ссв249036 0.0 1028408
18:00−5с11955 0.0 102812
21:00−9з119835 0.0 102910
28 января, пт
пт2800:00−9юз019635 0.0 102910
03:00−10ю119436 0.0 102810
06:00−10ю119346 0.0 102714
09:00−9ю11885 0.0 102810
12:000ююв22765 0.0 1026181
15:00+2ююв22925 0.0 1024172
18:00−1ю11885 0.0 102410
21:00−5ююз22845 0.0 102610